���t,����,�O�C���x,�����t���O,�O�C���Ύ��x,�����t���O,���ԉ��x,�����t���O,���ԑ��Ύ��x,�����t���O,�g�C������,�����t���O,�L�b�`�����x,�����t���O,��󒲎����x,�����t���O
2003/10/1,0:00,15.6,0,75,0,25.3,0,52.6,0,23.9,0,25.2,0,21.8,0
2003/10/1,0:15,15.5,0,77,0,25.2,0,51.5,0,23.9,0,25.1,0,21.8,0
2003/10/1,0:30,15.4,0,77,0,25.1,0,51.1,0,23.9,0,24.9,0,21.8,0
2003/10/1,0:45,15.2,0,78,0,25,0,50.9,0,23.9,0,24.8,0,21.8,0
2003/10/1,1:00,15.1,0,79,0,24.9,0,50.8,0,23.9,0,24.7,0,21.7,0
2003/10/1,1:15,14.9,0,80,0,24.8,0,50.8,0,23.9,0,24.7,0,21.7,0
2003/10/1,1:30,15,0,80,0,24.7,0,50.9,0,23.9,0,24.7,0,21.7,0
2003/10/1,1:45,14.8,0,81,0,24.7,0,50.5,0,23.3,0,24.6,0,21.7,0
2003/10/1,2:00,14.6,0,81,0,24.7,0,50.6,0,23.6,0,24.6,0,21.6,0
2003/10/1,2:15,14.4,0,82,0,24.6,0,50.8,0,23.6,0,24.6,0,21.6,0
2003/10/1,2:30,14.1,0,83,0,24.6,0,50.9,0,23.6,0,24.6,0,21.5,0
2003/10/1,2:45,14.2,0,83,0,24.5,0,50.9,0,23.6,0,24.5,0,21.5,0
2003/10/1,3:00,13.9,0,83,0,24.4,0,50.8,0,23.6,0,24.4,0,21.4,0
2003/10/1,3:15,13.9,0,85,0,24.3,0,50.7,0,23.6,0,24.4,0,21.4,0
2003/10/1,3:30,13.9,0,84,0,24.3,0,50.9,0,23.6,0,24.3,0,21.3,0
2003/10/1,3:45,13.8,0,83,0,24.2,0,50.8,0,23.6,0,24.3,0,21.2,0
2003/10/1,4:00,13.6,0,83,0,24.1,0,50.8,0,23.6,0,24.2,0,21.1,0
2003/10/1,4:15,13.6,0,84,0,24,0,50.8,0,23.6,0,24.1,0,21,0
2003/10/1,4:30,13.4,0,84,0,23.9,0,50.8,0,23.6,0,24.1,0,20.9,0
2003/10/1,4:45,13.3,0,86,0,23.8,0,50.7,0,23.5,0,24,0,20.8,0
2003/10/1,5:00,13.1,0,85,0,23.7,0,50.8,0,23.5,0,23.9,0,20.7,0
2003/10/1,5:15,13,0,85,0,23.7,0,51,0,23.4,0,23.8,0,20.6,0
2003/10/1,5:30,13,0,86,0,23.6,0,50.9,0,23.4,0,23.8,0,20.6,0
2003/10/1,5:45,13,0,88,0,23.6,0,52.3,0,23.4,0,23.7,0,20.5,0
2003/10/1,6:00,12.9,0,87,0,23.5,0,53.1,0,23.3,0,23.7,0,20.4,0
2003/10/1,6:15,12.9,0,86,0,23.4,0,52.7,0,23.3,0,23.6,0,20.3,0
2003/10/1,6:30,13.1,0,86,0,23.3,0,52.4,0,23.2,0,23.5,0,20.2,0
2003/10/1,6:45,13.3,0,86,0,23.1,0,50.8,0,23.9,0,23.3,0,20.3,0
2003/10/1,7:00,14.4,0,85,0,23,0,51.9,0,23.9,0,23,0,20.4,0
2003/10/1,7:15,15.3,0,80,0,22.6,0,51.6,0,23.8,0,22.3,0,20.4,0
2003/10/1,7:30,16.7,0,73,0,22.4,0,52.7,0,23.7,0,22,0,20.4,0
2003/10/1,7:45,17.9,0,70,0,22.1,0,53.1,0,24.2,0,21.7,0,20.5,0
2003/10/1,8:00,18.4,0,67,0,22.2,0,55.8,0,24.3,0,21.5,0,20.6,0
2003/10/1,8:15,19.1,0,62,0,22.4,0,55.6,0,24.3,0,21.6,0,20.7,0
2003/10/1,8:30,19.9,0,63,0,22.5,0,55.5,0,24.2,0,21.7,0,20.9,0
2003/10/1,8:45,21.3,0,59,0,22.4,0,55.9,0,24.1,0,21.6,0,21.1,0
2003/10/1,9:00,22.6,0,56,0,22.5,0,55.1,0,25.1,0,21.5,0,21.2,0
2003/10/1,9:15,23.4,0,53,0,22.7,0,56.6,0,25.2,0,21.6,0,21.4,0
2003/10/1,9:30,24.1,0,49,0,22.9,0,56.3,0,25.2,0,21.8,0,21.7,0
2003/10/1,9:45,25.3,0,47,0,23.1,0,57.3,0,25.1,0,22.1,0,21.9,0
2003/10/1,10:00,26.4,0,44,0,23.2,0,57.3,0,25.1,0,22.2,0,22.1,0
2003/10/1,10:15,27.2,0,39,0,23.2,0,55.4,0,25,0,22.3,0,22.2,0
2003/10/1,10:30,28.2,0,35,0,23.2,0,57.3,0,25,0,22.3,0,22.3,0
2003/10/1,10:45,29.7,0,30,0,23.2,0,56.8,0,25,0,22.4,0,22.3,0
2003/10/1,11:00,31.2,0,27,0,23.2,0,55.4,0,24.5,0,22.6,0,22.4,0
2003/10/1,11:15,36.1,0,20,0,23.2,0,52.3,0,24.2,0,22.7,0,22.4,0
2003/10/1,11:30,40.6,0,16,0,23.2,0,53.6,0,24.4,0,22.7,0,22.5,0
2003/10/1,11:45,40.7,0,15,0,23.3,0,53.8,0,24.4,0,22.8,0,22.5,0
2003/10/1,12:00,40.9,0,14,0,23.4,0,53.2,0,24.1,0,22.9,0,22.6,0
2003/10/1,12:15,35.2,0,21,0,23.5,0,54,0,24.1,0,23.1,0,22.8,0
2003/10/1,12:30,33.2,0,25,0,23.6,0,53.7,0,24.2,0,23.3,0,22.9,0
2003/10/1,12:45,32.3,0,26,0,23.7,0,53.3,0,23.7,0,23.5,0,23,0
2003/10/1,13:00,31.7,0,28,0,23.8,0,53.3,0,23.7,0,23.6,0,23.1,0
2003/10/1,13:15,32.1,0,29,0,23.9,0,52.6,0,23.9,0,23.8,0,23.1,0
2003/10/1,13:30,31.2,0,31,0,24,0,52.9,0,24,0,24,0,23.2,0
2003/10/1,13:45,30.5,0,32,0,24.1,0,53,0,24,0,24.2,0,23.3,0
2003/10/1,14:00,30.6,0,31,0,24.3,0,53,0,24.1,0,24.3,0,23.4,0
2003/10/1,14:15,30.6,0,32,0,24.4,0,52.6,0,24.1,0,24.5,0,23.6,0
2003/10/1,14:30,29.8,0,33,0,24.4,0,51.5,0,24.1,0,24.6,0,23.7,0
2003/10/1,14:45,29.6,0,34,0,24.5,0,51.5,0,24.2,0,24.7,0,23.8,0
2003/10/1,15:00,29.2,0,35,0,24.7,0,52,0,24.2,0,24.8,0,23.9,0
2003/10/1,15:15,28.8,0,36,0,24.7,0,50.9,0,24.1,0,24.9,0,24.1,0
2003/10/1,15:30,28.5,0,38,0,24.9,0,51.8,0,24.1,0,25.1,0,24.2,0
2003/10/1,15:45,28.3,0,37,0,24.9,0,51.1,0,24.2,0,25.2,0,24.3,0
2003/10/1,16:00,28,0,39,0,25,0,51.6,0,24,0,25.3,0,24.4,0
2003/10/1,16:15,27.5,0,39,0,25.1,0,51.8,0,24.1,0,25.4,0,24.5,0
2003/10/1,16:30,27.3,0,41,0,25.2,0,51.4,0,24.3,0,25.5,0,24.5,0
2003/10/1,16:45,26.7,0,43,0,25.3,0,51.9,0,24.4,0,25.5,0,24.6,0
2003/10/1,17:00,26.2,0,45,0,25.4,0,51.2,0,23.9,0,25.7,0,24.6,0
2003/10/1,17:15,25.7,0,45,0,25.5,0,51.3,0,24.1,0,25.7,0,24.7,0
2003/10/1,17:30,25.3,0,47,0,25.4,0,51.8,0,23.7,0,25.6,0,24.7,0
2003/10/1,17:45,24.1,0,50,0,25.5,0,53.9,0,23.8,0,25.7,0,24.8,0
2003/10/1,18:00,23.5,0,53,0,25.4,0,53,0,23.9,0,25.7,0,24.8,0
2003/10/1,18:15,23,0,57,0,25.4,0,53.9,0,24,0,25.8,0,24.8,0
2003/10/1,18:30,22.9,0,58,0,25.6,0,58.4,0,24.6,0,25.9,0,24.9,0
2003/10/1,18:45,22.4,0,62,0,25.6,0,56.4,0,24.3,0,25.9,0,24.9,0
2003/10/1,19:00,21.7,0,65,0,25.7,0,61.2,0,24.4,0,25.9,0,24.9,0
2003/10/1,19:15,20.8,0,69,0,25.5,0,56.2,0,24.1,0,25.8,0,24.9,0
2003/10/1,19:30,20.6,0,70,0,25.4,0,57,0,23.8,0,25.6,0,24.9,0
2003/10/1,19:45,20.5,0,70,0,25.3,0,57.6,0,24,0,25.7,0,24.9,0
2003/10/1,20:00,20.4,0,70,0,25.3,0,57.4,0,24.1,0,25.6,0,24.8,0
2003/10/1,20:15,20,0,71,0,25.3,0,56.1,0,24.1,0,25.5,0,24.8,0
2003/10/1,20:30,20,0,72,0,25.2,0,55.9,0,24.2,0,25.3,0,24.9,0
2003/10/1,20:45,19.7,0,72,0,25,0,56.6,0,24,0,25.1,0,24.8,0
2003/10/1,21:00,19.7,0,72,0,24.9,0,57.9,0,24,0,25,0,24.7,0
2003/10/1,21:15,19.5,0,77,0,24.9,0,59.1,0,24,0,25,0,24.7,0
2003/10/1,21:30,19.2,0,73,0,24.9,0,58.1,0,24,0,25,0,24.7,0
2003/10/1,21:45,19,0,73,0,24.9,0,58.5,0,24.1,0,25.1,0,24.7,0
2003/10/1,22:00,19,0,72,0,24.9,0,59.4,0,23.8,0,25.1,0,24.7,0
2003/10/1,22:15,18.9,0,70,0,24.9,0,58.3,0,24,0,25.1,0,24.6,0
2003/10/1,22:30,18.6,0,72,0,24.9,0,61.8,0,23.8,0,25.2,0,24.6,0
2003/10/1,22:45,18.4,0,74,0,25.1,0,62.3,0,23.8,0,25.4,0,24.6,0
2003/10/1,23:00,18.5,0,72,0,25.2,0,62,0,23.8,0,25.6,0,24.5,0
2003/10/1,23:15,18.5,0,70,0,25.4,0,61.7,0,23.9,0,25.8,0,24.5,0
2003/10/1,23:30,18.3,0,72,0,25.5,0,61.7,0,23.9,0,25.9,0,24.5,0
2003/10/1,23:45,18.2,0,73,0,25.7,0,63.9,0,23.6,0,26,0,24.5,0
2003/10/2,0:00,18.1,0,75,0,25.8,0,65.6,0,23.6,0,26.1,0,24.5,0
2003/10/2,0:15,18,0,76,0,26,0,65.1,0,23.6,0,26.3,0,24.5,0
2003/10/2,0:30,18.4,0,70,0,26.1,0,64.4,0,23.7,0,26.4,0,24.5,0
2003/10/2,0:45,18.4,0,70,0,26.2,0,64.2,0,23.7,0,26.4,0,24.4,0
2003/10/2,1:00,18.5,0,68,0,26.3,0,63.6,0,23.7,0,26.5,0,24.4,0
2003/10/2,1:15,18.9,0,61,0,26.3,0,59.2,0,23.7,0,26.4,0,24.4,0
2003/10/2,1:30,18.8,0,64,0,26.4,0,59.5,0,23.8,0,26.5,0,24.4,0
2003/10/2,1:45,18.5,0,70,0,26.4,0,59.7,0,23.8,0,26.5,0,24.4,0
2003/10/2,2:00,18.9,0,65,0,26.4,0,59.8,0,23.8,0,26.6,0,24.3,0
2003/10/2,2:15,19.3,0,61,0,26.4,0,59.8,0,23.8,0,26.6,0,24.3,0
2003/10/2,2:30,18.9,0,70,0,26.4,0,59.8,0,23.8,0,26.6,0,24.3,0
2003/10/2,2:45,18.9,0,70,0,26.3,0,59.8,0,23.6,0,26.5,0,24.2,0
2003/10/2,3:00,20.4,0,56,0,26.3,0,59.8,0,23.7,0,26.5,0,24.2,0
2003/10/2,3:15,20.8,0,56,0,26.3,0,59.7,0,23.7,0,26.5,0,24.1,0
2003/10/2,3:30,20.9,0,59,0,26.2,0,59.6,0,23.7,0,26.5,0,24.1,0
2003/10/2,3:45,20.9,0,60,0,26.2,0,59.6,0,23.7,0,26.5,0,24.1,0
2003/10/2,4:00,21.2,0,62,0,26.2,0,59.5,0,23.8,0,26.4,0,24,0
2003/10/2,4:15,21.3,0,64,0,26.2,0,59.5,0,23.8,0,26.4,0,24,0
2003/10/2,4:30,21.3,0,66,0,26.1,0,59.5,0,23.8,0,26.4,0,24,0
2003/10/2,4:45,21.6,0,69,0,26.1,0,59.4,0,23.8,0,26.4,0,24,0
2003/10/2,5:00,21.7,0,70,0,26.1,0,59.5,0,23.2,0,26.4,0,24,0
2003/10/2,5:15,21.5,0,73,0,26,0,59.5,0,23.3,0,26.4,0,23.9,0
2003/10/2,5:30,21.6,0,75,0,26,0,59.6,0,23.3,0,26.3,0,23.9,0
2003/10/2,5:45,21.6,0,76,0,26,0,59.7,0,23.4,0,26.3,0,23.9,0
2003/10/2,6:00,21.6,0,75,0,25.9,0,59.7,0,23.4,0,26.3,0,23.9,0
2003/10/2,6:15,21.6,0,75,0,25.9,0,59.9,0,23.5,0,26.2,0,23.9,0
2003/10/2,6:30,21.7,0,74,0,25.8,0,60.1,0,23.5,0,26.2,0,23.9,0
2003/10/2,6:45,21.8,0,75,0,25.5,0,61.8,0,23.8,0,25.9,0,23.9,0
2003/10/2,7:00,22,0,76,0,25.1,0,62.4,0,24,0,25.1,0,23.9,0
2003/10/2,7:15,22.1,0,77,0,25.1,0,63.4,0,24.1,0,25,0,23.9,0
2003/10/2,7:30,22.6,0,75,0,25,0,65.2,0,24.1,0,25,0,23.9,0
2003/10/2,7:45,22.7,0,75,0,24.8,0,66.4,0,24.4,0,24.8,0,23.9,0
2003/10/2,8:00,22.8,0,74,0,24.8,0,67.4,0,24.5,0,24.8,0,23.9,0
2003/10/2,8:15,24,0,68,0,24.7,0,68.3,0,24.5,0,24.8,0,24,0
2003/10/2,8:30,26.6,0,57,0,24.7,0,68.7,0,24.6,0,24.7,0,24,0
2003/10/2,8:45,27,0,55,0,24.7,0,68.4,0,24.6,0,24.7,0,24.1,0
2003/10/2,9:00,27.3,0,54,0,24.7,0,65.9,0,24.6,0,24.7,0,24.1,0
2003/10/2,9:15,29.1,0,47,0,24.8,0,65.7,0,24.6,0,24.8,0,24.2,0
2003/10/2,9:30,30,0,44,0,24.7,0,65.8,0,24.6,0,24.7,0,24.3,0
2003/10/2,9:45,28.6,0,47,0,24.8,0,65.3,0,24.6,0,24.6,0,24.4,0
2003/10/2,10:00,27.9,0,51,0,24.9,0,63.6,0,24.6,0,24.7,0,24.4,0
2003/10/2,10:15,30.6,0,43,0,25.1,0,64,0,24.5,0,24.8,0,24.5,0
2003/10/2,10:30,32.3,0,38,0,25.1,0,63.8,0,24.2,0,24.9,0,24.6,0
2003/10/2,10:45,29.8,0,43,0,25.1,0,63.9,0,24.2,0,25,0,24.7,0
2003/10/2,11:00,33.1,0,36,0,25.2,0,63.5,0,24.2,0,25,0,24.8,0
2003/10/2,11:15,37.7,0,26,0,25.2,0,63,0,24.3,0,25.2,0,24.9,0
2003/10/2,11:30,39.1,0,24,0,25.3,0,63.2,0,24.3,0,25.2,0,24.9,0
2003/10/2,11:45,40.1,0,22,0,25.3,0,63,0,24.3,0,25.3,0,25,0
2003/10/2,12:00,40.8,0,21,0,25.3,0,62.8,0,24.4,0,25.3,0,25.1,0
2003/10/2,12:15,34.5,0,31,0,25.4,0,61.7,0,24.4,0,25.4,0,25.1,0
2003/10/2,12:30,33.2,0,34,0,25.5,0,61.7,0,24.1,0,25.5,0,25.2,0
2003/10/2,12:45,33.3,0,35,0,25.6,0,62,0,23.8,0,25.7,0,25.3,0
2003/10/2,13:00,32.9,0,36,0,25.7,0,62.4,0,23.9,0,25.8,0,25.4,0
2003/10/2,13:15,32,0,38,0,25.7,0,62.1,0,24.2,0,26,0,25.4,0
2003/10/2,13:30,31.2,0,40,0,25.9,0,62.1,0,24.4,0,26.1,0,25.6,0
2003/10/2,13:45,31.1,0,39,0,26.2,0,61.2,0,24.3,0,26.3,0,25.7,0
2003/10/2,14:00,30.8,0,40,0,26.3,0,60.3,0,24.4,0,26.5,0,25.8,0
2003/10/2,14:15,30,0,42,0,26.5,0,59.7,0,24.5,0,26.6,0,25.9,0
2003/10/2,14:30,29.5,0,43,0,26.5,0,58.9,0,24.6,0,26.6,0,26,0
2003/10/2,14:45,29.1,0,44,0,26.6,0,58.7,0,24,0,26.7,0,26,0
2003/10/2,15:00,28.7,0,44,0,26.6,0,58.3,0,24.2,0,26.6,0,26.1,0
2003/10/2,15:15,28.1,0,44,0,26.5,0,57.9,0,24.3,0,26.6,0,26.1,0
2003/10/2,15:30,28,0,44,0,26.6,0,57.5,0,24.4,0,26.5,0,26.1,0
2003/10/2,15:45,27.5,0,44,0,26.5,0,56.8,0,23.8,0,26.5,0,26.1,0
2003/10/2,16:00,27.1,0,46,0,26.6,0,56.5,0,24,0,26.5,0,26.1,0
2003/10/2,16:15,26.8,0,46,0,26.5,0,55.3,0,24.2,0,26.6,0,26.1,0
2003/10/2,16:30,26.4,0,47,0,26.5,0,54.4,0,23.8,0,26.7,0,26,0
2003/10/2,16:45,26.1,0,46,0,26.5,0,53.8,0,23.9,0,28.2,0,26,0
2003/10/2,17:00,25.7,0,48,0,26.4,0,53.6,0,24,0,29.1,0,25.9,0
2003/10/2,17:15,25.1,0,50,0,26.4,0,52.6,0,24.1,0,28.6,0,25.8,0
2003/10/2,17:30,24.4,0,53,0,26.3,0,52.1,0,24,0,27.3,0,25.8,0
2003/10/2,17:45,24.1,0,54,0,26.2,0,52.6,0,24.2,0,26.7,0,25.7,0
2003/10/2,18:00,23.8,0,57,0,26,0,53.4,0,24.3,0,26.3,0,25.6,0
2003/10/2,18:15,23.2,0,60,0,25.9,0,53.4,0,24.4,0,26.1,0,25.5,0
2003/10/2,18:30,22.6,0,61,0,25.8,0,54.6,0,24.5,0,25.9,0,25.4,0
2003/10/2,18:45,21.3,0,65,0,25.8,0,56.1,0,24.5,0,25.7,0,25.3,0
2003/10/2,19:00,21.1,0,66,0,25.9,0,56.9,0,24.6,0,25.7,0,25.3,0
2003/10/2,19:15,21.2,0,66,0,26.1,0,57,0,24.7,0,26,0,25.2,0
2003/10/2,19:30,21.1,0,68,0,26.1,0,56.8,0,24.7,0,26.1,0,25.2,0
2003/10/2,19:45,20.8,0,69,0,26.1,0,57.3,0,24.8,0,26.2,0,25.2,0
2003/10/2,20:00,20.8,0,70,0,26.1,0,57.3,0,24.8,0,25.9,0,25.2,0
2003/10/2,20:15,21,0,69,0,26.1,0,56.2,0,24.1,0,25.8,0,25.2,0
2003/10/2,20:30,20.2,0,71,0,26.1,0,56.2,0,24.2,0,25.9,0,25.2,0
2003/10/2,20:45,20,0,73,0,26.2,0,56.7,0,24.2,0,25.8,0,25.2,0
2003/10/2,21:00,20,0,73,0,26.2,0,56.3,0,24.3,0,25.8,0,25.2,0
2003/10/2,21:15,20.1,0,74,0,26.3,0,55.7,0,24.3,0,25.9,0,25.1,0
2003/10/2,21:30,19.9,0,74,0,23.3,0,55.1,0,24.4,0,25.9,0,25.1,0
2003/10/2,21:45,19.9,0,75,0,21.7,0,50.9,0,24.4,0,25.2,0,25.1,0
2003/10/2,22:00,19.7,0,76,0,22.6,0,58.4,0,24.4,0,24.8,0,25.1,0
2003/10/2,22:15,19.4,0,76,0,23.8,0,59,0,24.5,0,24.7,0,25.1,0
2003/10/2,22:30,19.1,0,78,0,24.8,0,58,0,24.5,0,25,0,25.1,0
2003/10/2,22:45,18.9,0,79,0,24.9,0,59.7,0,24.5,0,25.3,0,25,0
2003/10/2,23:00,18.8,0,81,0,25.1,0,60.6,0,24.6,0,25.5,0,25,0
2003/10/2,23:15,18.8,0,82,0,25.3,0,61.3,0,24,0,25.6,0,25,0
2003/10/2,23:30,18.5,0,83,0,25.5,0,64.1,0,24,0,25.7,0,24.9,0
2003/10/2,23:45,18.4,0,83,0,25.7,0,62.4,0,24.1,0,25.9,0,24.9,0
2003/10/3,0:00,18.1,0,84,0,25.9,0,61.4,0,24.1,0,26,0,24.9,0
2003/10/3,0:15,18,0,85,0,26,0,61.3,0,24.1,0,26.1,0,24.9,0
2003/10/3,0:30,18.1,0,85,0,26.1,0,60.5,0,24.2,0,26.1,0,24.9,0
2003/10/3,0:45,18.1,0,85,0,26.1,0,60.4,0,24.2,0,26.1,0,24.8,0
2003/10/3,1:00,17.8,0,83,0,26.1,0,60.3,0,24.2,0,26.1,0,24.8,0
2003/10/3,1:15,17.8,0,85,0,26.1,0,60.2,0,24.2,0,26.2,0,24.8,0
2003/10/3,1:30,17.5,0,85,0,26.1,0,60,0,24.3,0,26.1,0,24.8,0
2003/10/3,1:45,17.4,0,86,0,26.1,0,59.9,0,24.3,0,26.1,0,24.8,0
2003/10/3,2:00,17.4,0,87,0,26.1,0,59.8,0,24.3,0,26.1,0,24.7,0
2003/10/3,2:15,17.2,0,88,0,26,0,59.8,0,24.3,0,26.1,0,24.7,0
2003/10/3,2:30,17.2,0,89,0,26,0,59.7,0,24.3,0,26.1,0,24.7,0
2003/10/3,2:45,17.1,0,88,0,26,0,59.6,0,24.3,0,26.1,0,24.7,0
2003/10/3,3:00,17,0,88,0,25.9,0,59.6,0,23.8,0,26,0,24.6,0
2003/10/3,3:15,17,0,86,0,25.9,0,59.7,0,23.9,0,26,0,24.6,0
2003/10/3,3:30,16.8,0,85,0,25.8,0,59.7,0,23.9,0,25.9,0,24.6,0
2003/10/3,3:45,16.6,0,86,0,25.8,0,59.6,0,23.9,0,25.9,0,24.5,0
2003/10/3,4:00,16.4,0,86,0,25.7,0,59.6,0,23.9,0,25.9,0,24.5,0
2003/10/3,4:15,16.7,0,87,0,25.7,0,59.5,0,24,0,25.8,0,24.5,0
2003/10/3,4:30,16.9,0,86,0,25.6,0,59.2,0,24,0,25.8,0,24.5,0
2003/10/3,4:45,16.8,0,85,0,25.6,0,58.8,0,24,0,25.8,0,24.4,0
2003/10/3,5:00,17,0,85,0,25.5,0,58.8,0,24,0,25.7,0,24.4,0
2003/10/3,5:15,17,0,85,0,25.5,0,58.8,0,24,0,25.7,0,24.4,0
2003/10/3,5:30,17.4,0,84,0,25.4,0,58.7,0,24,0,25.6,0,24.3,0
2003/10/3,5:45,17.4,0,79,0,25.4,0,58.9,0,24,0,25.6,0,24.3,0
2003/10/3,6:00,17.7,0,75,0,25.3,0,58.9,0,24,0,25.5,0,24.3,0
2003/10/3,6:15,17.8,0,76,0,25.2,0,59.1,0,24,0,25.5,0,24.2,0
2003/10/3,6:30,18,0,78,0,25.2,0,59.1,0,23.9,0,25.5,0,24.2,0
2003/10/3,6:45,17.8,0,81,0,25.1,0,58.9,0,23.9,0,25.4,0,24.1,0
2003/10/3,7:00,17.9,0,81,0,25.1,0,59,0,23.9,0,25.4,0,24.1,0
2003/10/3,7:15,18.5,0,79,0,25,0,57.3,0,24,0,25.2,0,24.1,0
2003/10/3,7:30,18.4,0,79,0,24.8,0,56.1,0,24,0,24.6,0,24.1,0
2003/10/3,7:45,18.4,0,78,0,24.7,0,57.5,0,24,0,24.4,0,24.1,0
2003/10/3,8:00,19.1,0,76,0,24.6,0,57.1,0,24.4,0,24.4,0,24.1,0
2003/10/3,8:15,20.1,0,73,0,24.5,0,58.4,0,24.4,0,24.2,0,24.1,0
2003/10/3,8:30,22.9,0,56,0,24.5,0,62.6,0,24.3,0,24.1,0,24.1,0
2003/10/3,8:45,23.3,0,54,0,24.2,0,57.2,0,24,0,24,0,24,0
2003/10/3,9:00,24.2,0,52,0,24.4,0,59.3,0,24.2,0,23.8,0,24.1,0
2003/10/3,9:15,25.3,0,48,0,24.4,0,55.1,0,24.2,0,23.7,0,24.1,0
2003/10/3,9:30,27.2,0,43,0,24.5,0,55.6,0,24.2,0,24,0,24.2,0
2003/10/3,9:45,28.3,0,39,0,24.6,0,55.5,0,24,0,24.2,0,24.2,0
2003/10/3,10:00,26.3,0,44,0,24.9,0,54.8,0,23.9,0,24.5,0,24.3,0
2003/10/3,10:15,26.2,0,43,0,25,0,54.7,0,23.9,0,24.7,0,24.4,0
2003/10/3,10:30,27.6,0,39,0,25,0,56.6,0,23.9,0,24.8,0,24.5,0
2003/10/3,10:45,28.2,0,38,0,25.2,0,57.5,0,24,0,25,0,24.5,0
2003/10/3,11:00,30.7,0,30,0,25.3,0,56.9,0,24,0,25.2,0,24.5,0
2003/10/3,11:15,32.2,0,28,0,25.4,0,55.2,0,24,0,25.2,0,24.5,0
2003/10/3,11:30,38.6,0,18,0,25.5,0,52.3,0,24.2,0,25.3,0,24.6,0
2003/10/3,11:45,37.4,0,19,0,25.5,0,51.5,0,24.2,0,25.4,0,24.6,0
2003/10/3,12:00,36.9,0,20,0,25.5,0,50.7,0,24.2,0,25.5,0,24.6,0
2003/10/3,12:15,33.5,0,24,0,25.6,0,50.7,0,24.3,0,25.7,0,24.7,0
2003/10/3,12:30,32.5,0,26,0,25.7,0,50.1,0,23.6,0,25.8,0,24.7,0
2003/10/3,12:45,31.5,0,27,0,25.8,0,49.3,0,23.7,0,25.9,0,24.8,0
2003/10/3,13:00,30.5,0,31,0,25.9,0,49.4,0,23.7,0,26.1,0,24.8,0
2003/10/3,13:15,29.4,0,33,0,26,0,48.6,0,23.7,0,26.1,0,24.9,0
2003/10/3,13:30,28.1,0,36,0,26,0,48.4,0,24.1,0,26.1,0,25,0
2003/10/3,13:45,27.5,0,37,0,26.1,0,48.8,0,24.3,0,26.2,0,25,0
2003/10/3,14:00,27.4,0,37,0,26,0,47.7,0,24.3,0,26.1,0,25.1,0
2003/10/3,14:15,27,0,38,0,26,0,47.7,0,24.3,0,25.9,0,25.1,0
2003/10/3,14:30,26.1,0,39,0,25.9,0,47.7,0,24.4,0,25.8,0,25.2,0
2003/10/3,14:45,25.6,0,40,0,26,0,47.5,0,23.6,0,25.8,0,25.2,0
2003/10/3,15:00,25,0,40,0,25.9,0,47.1,0,23.7,0,25.7,0,25.3,0
2003/10/3,15:15,24.6,0,40,0,25.8,0,46.8,0,24.1,0,25.5,0,25.3,0
2003/10/3,15:30,24.7,0,40,0,25.4,0,46.8,0,24.2,0,25.2,0,25.3,0
2003/10/3,15:45,24.4,0,41,0,25.4,0,46,0,23.9,0,25.1,0,25.3,0
2003/10/3,16:00,24.4,0,38,0,25.4,0,43.9,0,24.2,0,25,0,25.3,0
2003/10/3,16:15,24.2,0,42,0,25.3,0,44.8,0,24.2,0,25,0,25.3,0
2003/10/3,16:30,24,0,44,0,25.2,0,45.6,0,24.1,0,24.9,0,25.3,0
2003/10/3,16:45,23.8,0,47,0,25.3,0,44.3,0,24.3,0,25.6,0,25.3,0
2003/10/3,17:00,23.1,0,47,0,25.4,0,46.9,0,24.3,0,26.2,0,25.3,0
2003/10/3,17:15,23.2,0,47,0,25.4,0,48.1,0,24.4,0,26.1,0,25.3,0
2003/10/3,17:30,22.8,0,49,0,25.3,0,49,0,23.8,0,25.6,0,25.3,0
2003/10/3,17:45,22.3,0,48,0,25.2,0,49.1,0,23.9,0,25.2,0,25.3,0
2003/10/3,18:00,22.1,0,52,0,25.2,0,48.3,0,24.5,0,25.1,0,25.3,0
2003/10/3,18:15,21.9,0,52,0,25.1,0,48.8,0,24.5,0,25,0,25.3,0
2003/10/3,18:30,21.5,0,55,0,25,0,47.3,0,24,0,24.8,0,25.3,0
2003/10/3,18:45,21.3,0,56,0,24.9,0,47.1,0,24.1,0,24.7,0,25.3,0
2003/10/3,19:00,20.9,0,58,0,24.9,0,48.7,0,24.2,0,24.6,0,25.2,0
2003/10/3,19:15,20.3,0,60,0,24.9,0,51,0,24.2,0,24.4,0,25.2,0
2003/10/3,19:30,20.7,0,60,0,24.8,0,51.2,0,24.4,0,24.3,0,25.2,0
2003/10/3,19:45,20.7,0,61,0,24.6,0,57.1,0,24.4,0,24.3,0,25.1,0
2003/10/3,20:00,21,0,60,0,24.5,0,54.4,0,24.3,0,24.5,0,25.1,0
2003/10/3,20:15,21,0,59,0,24.8,0,55.6,0,24.2,0,24.5,0,25.1,0
2003/10/3,20:30,21.1,0,57,0,25,0,56.5,0,24.2,0,24.8,0,25.1,0
2003/10/3,20:45,21.1,0,57,0,25,0,54.3,0,24,0,24.7,0,25,0
2003/10/3,21:00,20.9,0,56,0,25.1,0,54.3,0,24,0,24.8,0,25,0
2003/10/3,21:15,20.9,0,53,0,25.2,0,54.6,0,24.1,0,24.9,0,25,0
2003/10/3,21:30,20.8,0,53,0,25.4,0,56.2,0,24.1,0,25,0,24.9,0
2003/10/3,21:45,20.6,0,52,0,25.5,0,58.6,0,24.1,0,25.2,0,24.9,0
2003/10/3,22:00,20.7,0,50,0,25.6,0,58.7,0,24.1,0,25.4,0,24.9,0
2003/10/3,22:15,20.6,0,51,0,25.7,0,57.6,0,24.1,0,25.5,0,24.9,0
2003/10/3,22:30,20.5,0,52,0,25.7,0,54.4,0,23.9,0,25.7,0,24.9,0
2003/10/3,22:45,20.5,0,53,0,25.9,0,54.6,0,23.9,0,25.9,0,24.9,0
2003/10/3,23:00,20.5,0,51,0,26.1,0,55.5,0,23.9,0,26,0,24.9,0
2003/10/3,23:15,20.4,0,51,0,26.1,0,53.7,0,24.2,0,26,0,24.9,0
2003/10/3,23:30,20.1,0,51,0,26.1,0,53.6,0,24.3,0,26.1,0,24.9,0
2003/10/3,23:45,20.1,0,50,0,26.1,0,53.4,0,24.3,0,26.1,0,24.9,0
2003/10/4,0:00,19.8,0,50,0,26.1,0,53,0,24.3,0,26.1,0,24.9,0
2003/10/4,0:15,19.5,0,52,0,26.1,0,52.4,0,24.3,0,26.1,0,24.9,0
2003/10/4,0:30,19.2,0,54,0,26.1,0,51.9,0,24.4,0,26.1,0,24.9,0
2003/10/4,0:45,19.1,0,56,0,26.1,0,51.7,0,24.4,0,26.1,0,24.9,0
2003/10/4,1:00,18.7,0,58,0,26,0,51.3,0,24.4,0,26,0,24.9,0
2003/10/4,1:15,18.5,0,59,0,26,0,50.5,0,24.4,0,26,0,24.9,0
2003/10/4,1:30,18.3,0,61,0,25.9,0,50.6,0,24.4,0,25.9,0,24.9,0
2003/10/4,1:45,18,0,65,0,25.9,0,50.3,0,24.4,0,25.9,0,24.9,0
2003/10/4,2:00,18.1,0,62,0,25.8,0,50.4,0,24.5,0,25.9,0,24.8,0
2003/10/4,2:15,18,0,62,0,25.8,0,50.2,0,24.5,0,25.8,0,24.8,0
2003/10/4,2:30,18,0,64,0,25.7,0,50.4,0,24.5,0,25.8,0,24.8,0
2003/10/4,2:45,17.8,0,67,0,25.6,0,50.7,0,24.5,0,25.7,0,24.8,0
2003/10/4,3:00,18.1,0,63,0,25.6,0,50.5,0,24.5,0,25.7,0,24.7,0
2003/10/4,3:15,17.7,0,67,0,25.5,0,50.4,0,24.5,0,25.6,0,24.7,0
2003/10/4,3:30,17.8,0,65,0,25.5,0,50.8,0,23.5,0,25.6,0,24.6,0
2003/10/4,3:45,17.8,0,66,0,25.4,0,50.7,0,23.5,0,25.5,0,24.6,0
2003/10/4,4:00,17.8,0,66,0,25.3,0,50.8,0,23.5,0,25.5,0,24.5,0
2003/10/4,4:15,18,0,66,0,25.3,0,50.8,0,23.5,0,25.4,0,24.5,0
2003/10/4,4:30,18.2,0,66,0,25.2,0,50.9,0,23.6,0,25.4,0,24.5,0
2003/10/4,4:45,18.3,0,67,0,25.2,0,51.1,0,23.6,0,25.3,0,24.4,0
2003/10/4,5:00,18.7,0,67,0,25.1,0,51.2,0,23.1,0,25.3,0,24.4,0
2003/10/4,5:15,19.2,0,64,0,25,0,51.5,0,23.2,0,25.2,0,24.4,0
2003/10/4,5:30,19.5,0,64,0,25,0,51.8,0,23.2,0,25.2,0,24.3,0
2003/10/4,5:45,19.5,0,65,0,24.9,0,52.1,0,23.2,0,25.1,0,24.3,0
2003/10/4,6:00,19.6,0,64,0,24.9,0,52.6,0,23.2,0,25.1,0,24.3,0
2003/10/4,6:15,19.7,0,62,0,24.8,0,52.9,0,23.3,0,25,0,24.2,0
2003/10/4,6:30,19.5,0,62,0,24.8,0,53.4,0,23.3,0,25,0,24.2,0
2003/10/4,6:45,19.5,0,62,0,24.4,0,52.4,0,23.9,0,24.4,0,24.2,0
2003/10/4,7:00,19.7,0,61,0,24.4,0,52.3,0,24,0,24.2,0,24.1,0
2003/10/4,7:15,19.7,0,62,0,24.4,0,53,0,24.4,0,24.2,0,24,0
2003/10/4,7:30,20.8,0,58,0,24.4,0,53.6,0,24.4,0,24.2,0,23.9,0
2003/10/4,7:45,21.6,0,54,0,24.4,0,54.3,0,24.4,0,24.2,0,23.8,0
2003/10/4,8:00,21.3,0,56,0,24.3,0,53.8,0,24.4,0,24.2,0,23.8,0
2003/10/4,8:15,21.3,0,57,0,24.4,0,52.8,0,24.1,0,24.1,0,23.8,0
2003/10/4,8:30,21.1,0,57,0,24.4,0,52.3,0,23.9,0,24.1,0,23.7,0
2003/10/4,8:45,22.3,0,51,0,24.5,0,53.6,0,24.4,0,24.2,0,23.7,0
2003/10/4,9:00,22.8,0,49,0,24.2,0,50,0,25,0,24.2,0,23.7,0
2003/10/4,9:15,23.1,0,49,0,24.2,0,50.4,0,25,0,24,0,23.7,0
2003/10/4,9:30,24.1,0,46,0,24.3,0,48.6,0,25.1,0,24,0,23.6,0
2003/10/4,9:45,24.2,0,45,0,24.2,0,50.3,0,24.4,0,24,0,23.6,0
2003/10/4,10:00,25.9,0,40,0,24.3,0,50.7,0,24.3,0,24.1,0,23.5,0
2003/10/4,10:15,26.8,0,40,0,24.3,0,51.1,0,24,0,24.1,0,23.5,0
2003/10/4,10:30,25.2,0,41,0,24.4,0,50.4,0,24,0,24.2,0,23.4,0
2003/10/4,10:45,26.1,0,40,0,24.4,0,50.2,0,24,0,24.2,0,23.4,0
2003/10/4,11:00,31.2,0,27,0,24.4,0,50.4,0,24.1,0,24.3,0,23.4,0
2003/10/4,11:15,32.5,0,26,0,24.4,0,49.6,0,24.1,0,24.3,0,23.4,0
2003/10/4,11:30,34.3,0,21,0,24.5,0,49.7,0,24.1,0,24.3,0,23.3,0
2003/10/4,11:45,35,0,23,0,24.5,0,48.6,0,24.2,0,24.4,0,23.3,0
2003/10/4,12:00,32.5,0,27,0,24.7,0,48.8,0,24.2,0,24.5,0,23.3,0
2003/10/4,12:15,31,0,28,0,24.8,0,48.1,0,24.2,0,24.6,0,23.3,0
2003/10/4,12:30,27.2,0,37,0,24.8,0,49.9,0,23.7,0,24.8,0,23.3,0
2003/10/4,12:45,26.8,0,39,0,24.9,0,50.3,0,23.8,0,24.9,0,23.3,0
2003/10/4,13:00,25.5,0,41,0,24.9,0,50.1,0,23.9,0,25,0,23.3,0
2003/10/4,13:15,26.7,0,38,0,24.9,0,50.4,0,24,0,25,0,23.4,0
2003/10/4,13:30,24.4,0,43,0,24.9,0,51.1,0,24.3,0,25,0,23.4,0
2003/10/4,13:45,24.8,0,43,0,24.9,0,50.5,0,24.3,0,24.9,0,23.4,0
2003/10/4,14:00,25.4,0,40,0,24.9,0,49.7,0,24.3,0,25,0,23.4,0
2003/10/4,14:15,25.7,0,39,0,24.8,0,49.3,0,24.4,0,24.7,0,23.3,0
2003/10/4,14:30,25.3,0,39,0,24.8,0,49,0,23.8,0,24.6,0,23.3,0
2003/10/4,14:45,24.8,0,40,0,24.8,0,48.6,0,23.9,0,24.6,0,23.3,0
2003/10/4,15:00,24.6,0,41,0,24.7,0,48.2,0,23.9,0,24.6,0,23.3,0
2003/10/4,15:15,24.3,0,41,0,24.6,0,47.5,0,24.1,0,24.5,0,23.3,0
2003/10/4,15:30,24.5,0,41,0,24.6,0,47.4,0,24.1,0,24.3,0,23.3,0
2003/10/4,15:45,23.7,0,43,0,24.5,0,47.2,0,24.2,0,24.3,0,23.3,0
2003/10/4,16:00,23.1,0,45,0,24.5,0,48.2,0,24.3,0,24.3,0,23.4,0
2003/10/4,16:15,23.3,0,44,0,24.5,0,48.2,0,23.7,0,24.4,0,23.4,0
2003/10/4,16:30,23,0,47,0,24.4,0,47.7,0,23.8,0,24.3,0,23.5,0
2003/10/4,16:45,22.7,0,48,0,24.3,0,47.7,0,23.8,0,24.2,0,23.5,0
2003/10/4,17:00,22.7,0,47,0,24.3,0,47.6,0,23.9,0,24.9,0,23.6,0
2003/10/4,17:15,22.5,0,48,0,24.2,0,48.4,0,23.4,0,24.6,0,23.7,0
2003/10/4,17:30,22.3,0,48,0,24.2,0,48.9,0,23.8,0,24.2,0,23.7,0
2003/10/4,17:45,21.6,0,48,0,24.1,0,49,0,24,0,24,0,23.8,0
2003/10/4,18:00,21.1,0,51,0,24.1,0,48.8,0,23.7,0,23.9,0,23.8,0
2003/10/4,18:15,20.8,0,52,0,24,0,48.5,0,23.8,0,23.8,0,23.8,0
2003/10/4,18:30,20.5,0,51,0,23.9,0,48.9,0,23.9,0,23.8,0,23.8,0
2003/10/4,18:45,20.5,0,52,0,23.9,0,50.1,0,23.5,0,23.7,0,23.8,0
2003/10/4,19:00,20.2,0,53,0,23.9,0,48.9,0,23.7,0,23.7,0,23.8,0
2003/10/4,19:15,20.2,0,53,0,23.9,0,48.3,0,23.8,0,23.7,0,23.7,0
2003/10/4,19:30,20.2,0,53,0,23.8,0,48.7,0,23.9,0,23.7,0,23.7,0
2003/10/4,19:45,20,0,52,0,23.9,0,51.9,0,24.3,0,23.7,0,23.7,0
2003/10/4,20:00,19.5,0,55,0,23.9,0,51.2,0,24.4,0,23.7,0,23.7,0
2003/10/4,20:15,19,0,59,0,24,0,50.9,0,24.1,0,23.8,0,23.6,0
2003/10/4,20:30,18.8,0,59,0,24.1,0,50.8,0,24.1,0,23.9,0,23.6,0
2003/10/4,20:45,18.6,0,60,0,24.1,0,50.5,0,24.1,0,23.8,0,23.5,0
2003/10/4,21:00,18.7,0,60,0,24.2,0,51,0,24.2,0,24,0,23.5,0
2003/10/4,21:15,17.9,0,62,0,24.3,0,53.9,0,24.2,0,24.2,0,23.5,0
2003/10/4,21:30,17.8,0,63,0,24.4,0,53.5,0,24.1,0,24.3,0,23.5,0
2003/10/4,21:45,17.8,0,62,0,24.5,0,52.5,0,24.2,0,24.3,0,23.5,0
2003/10/4,22:00,17.4,0,63,0,24.5,0,51.8,0,23.9,0,24.3,0,23.5,0
2003/10/4,22:15,17.4,0,63,0,24.6,0,51.7,0,24,0,24.4,0,23.5,0
2003/10/4,22:30,17.2,0,63,0,24.6,0,52.3,0,24,0,24.4,0,23.5,0
2003/10/4,22:45,17,0,65,0,24.6,0,53,0,24,0,24.4,0,23.5,0
2003/10/4,23:00,16.8,0,65,0,24.7,0,54.1,0,24,0,24.5,0,23.5,0